Content
SEND FEEDBACK

Daily
Averages
Monthly
Summary
United States of America

UKIAH, CALIFORNIA


Home > North America > United States > California
Elevation: 615 feet     Latitude: 39 08N     Longitude: 123 12W

WEATHER
 
SELECT A DAY
Number of Records: 221,964;   Date Range: 1/1/95 - 12/18/14
 
SHARE

PRINT THIS DATA

[ ← Previous Day ]
WEATHER ALMANAC - FEBRUARY 4, 2013
[ Next Day → ]
[ °C ]   °F
Weather ElementAverageHighLow
Temperature48.5 °F66.9 °F (2:56 pm)36 °F (4:56 am)
Dewpoint38.9 °F43 °F (3:56 pm)34 °F (4:56 am)
Humidity73.1 %93 % (4:56 am)39 % (2:56 pm)
Barometer30.11 in30.18 in (8:56 am)30.04 in (2:56 pm)
Wind Speed0.9 mph5.8 mph (2:56 pm)
Weather ElementAverage
Visibility9.9 mi
Wind DirectionNE (41 °)

Weather ElementTotal
Precipitation---
Heating Degree Days13.6 (Base 65)
Growing Degree Days1.5 (Base 50)
Averaged from 21 records on February 4, 2013
WEATHER CONDITIONS BREAKOUT
WIND DIRECTION BREAKOUT
WEATHER BY HOUR - FEBRUARY 4, 2013
[ °C ]   °F
Local TimeTemperatureDewpointHumidityBarometerVisibilityWind DirectionWind SpeedGust SpeedPrecipitationEventsConditions
2:56 AM39.9 °F37.0 °F89 %30.16 in8.0 miCalmClear
3:56 AM39.0 °F36.0 °F89 %30.15 in10.0 miCalmClear
4:56 AM36.0 °F34.0 °F93 %30.15 in10.0 miCalmClear
5:56 AM36.0 °F34.0 °F93 %30.15 in10.0 miCalmClear
6:56 AM37.0 °F34.0 °F89 %30.16 in10.0 miCalmClear
7:56 AM37.0 °F35.1 °F93 %30.17 in10.0 miCalmClear
8:56 AM39.9 °F36.0 °F86 %30.18 in10.0 miCalmClear
9:56 AM46.9 °F39.9 °F77 %30.17 in10.0 miCalmClear
10:56 AM52.0 °F42.1 °F69 %30.16 in10.0 miCalmClear
11:56 AM57.0 °F39.0 °F51 %30.13 in10.0 miCalmClear
12:56 PM61.0 °F37.9 °F42 %30.09 in10.0 miCalmClear
1:56 PM64.0 °F39.0 °F40 %30.06 in10.0 miSSW (200°)3.5 mphClear
2:56 PM66.9 °F41.0 °F39 %30.04 in10.0 miSSE (150°)5.8 mphClear
3:56 PM66.0 °F43.0 °F43 %30.04 in10.0 miSouth (170°)5.8 mphClear
5:56 PM57.0 °F43.0 °F59 %30.05 in10.0 miNNW (340°)3.5 mphClear
6:56 PM53.1 °F43.0 °F69 %30.06 in10.0 miCalmClear
7:56 PM51.1 °F43.0 °F74 %30.06 in10.0 miCalmClear
8:56 PM48.0 °F42.1 °F80 %30.07 in10.0 miCalmClear
9:56 PM46.0 °F41.0 °F83 %30.08 in10.0 miCalmClear
10:56 PM44.1 °F39.9 °F85 %30.09 in10.0 miCalmClear
11:56 PM39.9 °F37.9 °F93 %30.09 in10.0 miCalmClear
Hourly data recorded from KUKI, located miles away from Ukiah, California







STORIES FROM OUR PARTNERS